Wind_Speed
14 15 16 17 16 16 18 18 18 17 18 19 20 21 21 21 22 22 22 23 24 24 25 26 26 26 27 28 28 29 29 29 30 30 30 30 31 31 31 30 29 29 29
15 15 15 16 16 16 17 16 16 17 19 20 21 22 22 22 22 23 23 24 24 25 26 27 27 28 28 29 29 30 30 30 31 31 31 31 32 32 32 31 31 30 29
15 15 14 15 16 16 17 18 19 20 21 22 22 23 24 23 23 24 24 25 25 26 26 27 28 28 29 29 30 30 30 30 31 31 31 31 32 33 33 32 31 30 30
14 14 15 16 17 18 19 20 21 22 22 22 23 24 24 24 24 25 26 27 27 27 27 28 28 28 29 29 29 30 30 30 30 31 32 32 32 31 32 32 31 31 31
15 16 17 17 18 19 20 21 22 23 23 24 24 24 24 25 25 26 26 27 27 28 28 28 28 29 29 29 29 30 30 30 30 30 30 30 30 30 30 30 31 31 31
16 17 18 19 20 21 21 22 23 24 24 24 24 24 24 25 26 26 26 27 27 28 28 29 29 29 30 30 29 29 29 29 28 28 28 28 29 28 28 29 29 30 30
18 19 20 20 21 22 23 24 25 25 24 24 24 24 25 25 26 27 27 27 28 28 29 29 29 29 29 29 28 28 28 28 28 27 27 27 27 27 27 27 28 29 29
19 21 21 21 22 23 24 24 25 24 25 25 25 25 26 27 27 28 28 28 29 29 29 29 29 29 29 28 28 28 28 28 28 27 27 27 26 27 27 27 27 28 29
20 22 22 23 23 24 25 26 26 26 26 26 26 26 27 27 28 29 29 28 28 28 28 28 28 27 27 27 27 28 28 28 28 28 27 27 27 28 28 27 27 28 28
20 21 22 24 24 25 25 26 26 26 27 28 28 28 28 28 28 28 29 28 28 28 28 27 27 26 26 26 26 26 27 27 27 27 27 27 27 28 28 28 28 28 27
21 21 22 23 24 25 26 26 26 27 28 28 28 28 28 28 28 29 29 28 28 28 28 27 27 27 27 27 26 26 26 26 26 26 27 28 28 27 27 27 28 28 27
21 21 22 23 24 25 26 26 27 28 28 28 27 27 28 28 28 28 28 28 28 27 27 27 27 27 26 26 26 26 26 26 26 26 26 26 27 27 27 27 27 27 27
21 22 22 23 24 25 26 26 26 27 27 27 27 27 27 27 27 27 26 26 26 25 24 25 25 25 25 26 26 26 26 26 26 26 25 25 26 26 26 26 26 26 26
22 22 23 24 24 24 24 24 25 25 25 25 25 25 25 25 25 25 24 24 24 24 23 23 23 23 23 24 24 24 24 24 24 24 23 23 23 23 23 23 23 24 24
22 22 23 22 21 21 23 23 24 23 22 22 22 22 22 23 23 22 22 22 21 21 21 21 21 21 21 21 21 22 21 21 21 21 20 20 20 20 20 20 20 21 21
22 21 21 21 20 20 20 20 20 20 20 19 20 20 20 20 20 20 19 19 19 19 19 19 19 19 19 19 19 19 19 18 18 18 17 17 17 17 17 17 17 18 19
21 21 21 19 18 18 17 17 17 17 17 17 18 17 17 18 18 17 17 17 17 17 17 17 17 17 17 17 16 16 15 15 15 15 15 15 14 14 14 14 14 15 16
20 19 18 17 16 16 15 15 15 15 15 15 15 15 16 16 16 15 15 15 15 15 15 15 15 15 14 13 12 12 12 12 12 12 12 11 11 11 11 11 12 12 12
18 17 16 14 14 14 14 14 14 13 13 14 14 14 14 14 14 14 13 14 14 13 13 13 13 12 12 11 10 9 9 9 8 8 8 8 8 8 8 8 9 9 9
16 15 14 13 13 12 11 11 12 11 11 11 11 12 12 12 12 13 13 13 12 12 11 11 11 10 9 8 8 8 7 6 5 5 5 5 5 5 5 6 5 5 6
15 13 12 11 10 10 10 10 9 9 9 9 10 10 10 10 11 11 11 11 10 9 9 8 8 8 8 8 8 8 6 5 5 5 4 3 3 2 2 1 1 2 3
13 11 10 9 9 9 9 8 8 8 8 8 8 8 9 10 10 10 9 8 7 7 7 7 7 7 7 8 8 8 7 7 6 7 7 6 5 5 5 4 3 2 1
10 8 8 8 7 7 7 7 7 7 7 7 7 8 8 9 9 8 8 8 7 7 6 7 7 7 7 8 9 9 9 8 8 8 9 8 8 8 7 6 5 4 5
9 7 7 6 6 6 6 6 6 7 7 7 6 6 7 8 8 8 7 8 8 8 8 8 8 8 9 10 10 10 10 10 10 10 9 9 9 9 9 9 9 9 8
7 6 5 5 5 6 6 5 7 7 7 7 7 7 7 8 9 9 9 9 9 9 9 9 9 10 10 10 10 10 11 11 11 11 11 11 11 11 10 11 11 10 10
6 6 5 6 6 6 6 6 7 7 8 8 8 8 8 9 10 10 10 10 10 10 10 11 11 11 11 11 11 11 12 12 12 12 12 11 11 11 11 11 11 10 10
Wind_Direction
279 276 276 276 275 276 276 275 275 274 276 280 282 283 284 282 281 283 283 283 283 283 284 285 283 282 281 280 279 279 276 275 274 272 270 267 267 264 263 262 262 261 260
282 281 278 277 277 281 282 282 281 280 281 282 283 285 286 287 284 282 281 283 283 283 284 284 283 282 282 281 280 279 278 276 275 273 271 268 266 265 263 260 260 262 261
281 281 280 282 284 285 285 287 288 287 285 284 285 286 286 286 284 283 282 283 284 284 285 284 283 283 283 283 282 281 280 279 277 274 271 270 268 266 263 261 259 261 260
281 281 282 280 281 283 287 290 289 289 288 286 285 286 285 284 284 283 283 284 285 285 286 285 284 283 283 282 282 282 282 280 279 276 272 270 268 268 265 262 259 259 260
284 284 283 282 283 285 288 291 290 289 289 288 286 284 283 282 283 283 284 284 284 285 285 285 284 284 283 283 283 283 282 280 279 277 274 270 267 267 265 263 262 262 262
282 285 285 283 284 285 286 287 288 289 289 288 287 284 283 284 284 284 284 285 285 285 285 285 286 285 285 284 284 282 281 280 278 277 275 271 268 267 266 264 264 264 263
281 284 285 284 284 285 286 286 287 289 289 287 286 285 285 285 285 286 286 286 286 285 286 286 286 286 285 283 282 281 280 279 277 276 274 271 270 267 268 266 264 264 264
284 285 285 284 287 286 285 284 285 286 287 287 287 287 286 285 285 286 287 287 286 285 285 285 285 285 283 282 280 279 278 278 276 275 272 270 268 267 268 267 265 265 264
288 285 283 283 287 288 286 283 282 283 285 286 286 287 287 286 286 285 285 286 286 286 286 286 285 284 282 280 278 278 278 277 276 274 271 268 267 267 267 266 264 265 263
294 290 286 287 286 288 286 284 284 284 286 287 287 288 287 286 286 286 287 288 287 286 285 285 284 284 282 279 278 279 278 277 276 273 272 270 268 267 267 265 264 264 263
298 294 291 290 291 291 288 285 284 286 287 287 286 285 286 288 287 287 288 289 288 287 286 284 283 283 281 280 280 280 279 277 276 273 270 269 268 267 267 265 264 264 263
298 299 295 293 293 293 291 290 289 288 289 289 288 287 287 289 290 289 289 289 289 289 287 285 284 283 281 281 280 279 278 276 275 275 273 271 270 268 267 265 263 263 264
298 299 298 295 295 294 292 292 292 290 290 289 287 286 287 288 289 290 291 291 291 291 289 287 285 285 284 283 282 280 278 276 276 277 276 274 271 269 267 265 263 262 262
300 300 299 296 296 295 295 295 295 293 291 290 289 288 289 291 291 292 293 294 293 293 291 289 289 289 288 286 284 282 280 279 279 278 278 277 275 273 269 266 265 263 262
301 301 302 299 297 297 296 297 297 295 293 292 292 292 293 295 295 295 295 297 297 296 295 293 293 291 290 289 286 285 281 280 279 279 279 279 277 275 271 268 266 263 264
302 302 304 301 298 297 298 298 298 297 295 295 295 295 296 298 299 298 298 299 299 300 299 298 298 297 295 292 289 286 284 282 281 280 280 278 276 277 274 271 268 265 266
304 303 303 301 302 300 299 300 300 299 298 296 295 298 301 303 305 303 303 304 304 304 305 304 305 304 302 297 294 291 290 287 285 282 281 277 276 275 272 270 268 269 270
307 305 304 304 302 304 304 304 301 301 301 300 300 302 305 308 309 307 308 310 311 312 311 310 310 311 310 307 302 299 296 292 290 286 284 279 275 272 269 264 265 269 269
305 304 305 304 302 303 304 305 306 304 303 304 304 305 307 310 310 309 312 317 319 319 319 319 319 320 321 321 319 316 309 306 299 291 285 283 281 278 270 265 267 267 265
308 307 305 303 305 307 308 309 309 309 309 310 311 312 313 315 314 315 319 321 322 323 322 323 329 333 337 338 339 339 337 337 332 318 308 301 299 296 283 270 263 256 262
312 311 310 306 307 314 315 312 311 316 319 316 314 318 322 324 326 330 329 327 328 329 332 340 349 356 0 3 4 4 5 11 12 13 18 13 7 6 2 291 240 256 266
317 316 314 311 311 316 321 319 319 319 323 325 328 330 334 339 344 348 350 350 350 352 1 9 14 18 22 25 27 32 35 40 51 56 58 57 60 69 70 77 75 61 50
327 324 327 324 322 325 329 331 332 335 341 344 343 342 348 354 359 4 8 12 17 22 29 34 36 39 43 45 48 52 53 58 66 70 70 67 70 73 74 69 64 62 72
337 332 335 340 343 343 345 348 354 360 2 1 2 8 12 15 19 25 29 31 36 41 49 54 54 58 61 63 65 66 67 67 71 77 76 74 73 72 70 68 70 72 71
356 356 358 2 4 9 9 13 17 19 21 23 28 33 34 36 39 43 47 48 49 56 62 66 69 71 71 72 74 74 71 70 73 76 78 75 72 69 67 70 71 69 66
18 33 43 35 29 27 30 33 34 36 37 42 47 47 48 49 51 55 55 55 59 65 69 71 75 74 72 75 75 71 71 73 74 75 73 70 68 65 64 66 66 64 60
Height
5845 5845 5845 5845 5845 5845 5845 5844 5844 5844 5844 5844 5844 5843 5842 5841 5841 5839 5838 5837 5836 5835 5834 5833 5832 5831 5830 5829 5828 5828 5827 5827 5826 5826 5826 5826 5826 5826 5827 5827 5828 5828 5829
5842 5842 5842 5842 5842 5841 5841 5840 5840 5840 5839 5839 5838 5837 5836 5836 5835 5834 5833 5831 5830 5829 5828 5826 5825 5824 5823 5822 5821 5820 5819 5819 5818 5818 5818 5818 5819 5818 5819 5819 5820 5821 5821
5839 5839 5838 5838 5838 5838 5837 5837 5836 5835 5834 5833 5832 5831 5830 5829 5829 5828 5826 5825 5824 5822 5821 5819 5818 5817 5816 5815 5814 5812 5812 5811 5810 5810 5810 5810 5810 5811 5811 5811 5812 5813 5814
5836 5835 5835 5834 5834 5834 5833 5832 5831 5830 5829 5827 5826 5825 5824 5823 5822 5821 5819 5818 5816 5815 5814 5812 5811 5809 5808 5807 5806 5805 5804 5803 5803 5802 5801 5802 5802 5802 5803 5803 5804 5805 5806
5833 5832 5831 5831 5830 5829 5828 5827 5826 5824 5822 5821 5819 5819 5818 5817 5815 5814 5812 5811 5809 5808 5806 5805 5803 5802 5800 5799 5798 5797 5796 5795 5795 5794 5794 5793 5794 5794 5795 5795 5796 5796 5797
5830 5829 5828 5827 5826 5825 5823 5822 5820 5818 5816 5814 5813 5812 5811 5809 5808 5807 5806 5804 5802 5800 5799 5797 5796 5794 5793 5792 5790 5789 5788 5788 5787 5787 5786 5786 5786 5786 5787 5787 5788 5788 5789
5826 5825 5824 5822 5821 5819 5818 5816 5815 5813 5811 5809 5807 5805 5804 5802 5801 5800 5798 5797 5795 5793 5791 5790 5788 5786 5785 5783 5782 5782 5781 5780 5780 5779 5779 5778 5779 5779 5779 5780 5780 5781 5781
5821 5820 5818 5817 5815 5814 5812 5810 5808 5806 5804 5802 5801 5799 5797 5796 5794 5792 5791 5789 5787 5785 5783 5782 5780 5779 5777 5776 5775 5774 5773 5773 5772 5772 5771 5771 5771 5771 5772 5773 5773 5773 5774
5817 5815 5813 5811 5810 5808 5806 5804 5801 5799 5797 5796 5794 5792 5790 5788 5786 5784 5783 5781 5779 5777 5775 5774 5772 5771 5769 5768 5767 5767 5766 5765 5764 5764 5764 5763 5763 5764 5764 5765 5765 5766 5766
5812 5810 5808 5806 5804 5802 5799 5797 5794 5792 5790 5788 5786 5784 5782 5780 5778 5776 5775 5772 5770 5769 5767 5766 5764 5763 5762 5761 5760 5759 5758 5757 5757 5756 5756 5756 5756 5756 5756 5757 5757 5758 5759
5807 5805 5803 5800 5797 5795 5792 5790 5788 5785 5783 5781 5778 5777 5774 5772 5770 5768 5766 5764 5762 5761 5759 5758 5757 5755 5754 5753 5752 5751 5751 5750 5749 5748 5748 5748 5748 5748 5749 5749 5749 5750 5751
5802 5800 5797 5794 5791 5789 5786 5783 5781 5778 5775 5773 5771 5769 5767 5764 5762 5760 5758 5756 5754 5753 5751 5750 5749 5747 5746 5745 5744 5744 5743 5742 5741 5741 5740 5740 5740 5740 5740 5741 5741 5742 5743
5797 5794 5791 5788 5785 5782 5779 5776 5773 5770 5768 5766 5764 5762 5759 5757 5755 5753 5751 5749 5747 5745 5744 5742 5741 5740 5739 5738 5737 5736 5735 5735 5734 5733 5733 5732 5732 5732 5733 5733 5733 5734 5735
5791 5788 5785 5782 5779 5776 5773 5770 5767 5764 5761 5759 5757 5755 5752 5750 5748 5746 5744 5742 5740 5739 5737 5736 5735 5733 5732 5730 5729 5728 5728 5727 5726 5726 5726 5725 5725 5725 5725 5725 5726 5727 5728
5785 5782 5779 5776 5773 5770 5767 5764 5761 5758 5755 5753 5751 5749 5746 5744 5742 5740 5738 5736 5735 5733 5731 5730 5728 5727 5726 5724 5723 5722 5721 5720 5720 5719 5719 5719 5719 5719 5719 5719 5719 5721 5722
5779 5776 5773 5770 5767 5764 5761 5758 5756 5753 5750 5748 5746 5744 5742 5739 5737 5735 5734 5732 5730 5729 5727 5725 5723 5722 5720 5718 5717 5716 5715 5714 5714 5713 5713 5713 5713 5713 5713 5713 5714 5715 5716
5773 5770 5767 5764 5762 5759 5756 5754 5751 5748 5746 5744 5742 5740 5738 5736 5733 5732 5730 5728 5726 5724 5722 5721 5719 5717 5715 5713 5712 5711 5710 5709 5709 5708 5708 5708 5708 5708 5709 5709 5709 5710 5711
5768 5765 5762 5760 5757 5755 5752 5749 5747 5745 5742 5740 5738 5736 5734 5732 5730 5728 5727 5725 5723 5721 5719 5717 5715 5713 5711 5710 5708 5707 5706 5705 5705 5704 5704 5704 5704 5704 5705 5705 5706 5706 5707
5763 5761 5758 5756 5753 5751 5748 5746 5744 5741 5739 5737 5735 5734 5732 5730 5728 5726 5724 5722 5720 5719 5717 5715 5713 5711 5709 5708 5706 5705 5704 5703 5702 5701 5701 5701 5702 5702 5702 5703 5703 5703 5704
5759 5756 5754 5752 5750 5747 5745 5743 5741 5738 5736 5735 5733 5731 5729 5727 5725 5723 5722 5720 5718 5717 5715 5713 5712 5710 5708 5706 5705 5704 5702 5701 5700 5700 5700 5700 5700 5700 5700 5700 5701 5702 5702
5755 5753 5750 5748 5746 5744 5742 5740 5738 5736 5735 5733 5731 5729 5727 5726 5724 5722 5720 5718 5717 5715 5714 5712 5711 5709 5708 5706 5705 5704 5702 5701 5701 5700 5700 5700 5700 5699 5699 5699 5700 5700 5701
5752 5750 5748 5746 5744 5742 5741 5738 5737 5735 5733 5731 5729 5728 5726 5725 5723 5721 5719 5718 5716 5715 5713 5712 5711 5710 5709 5707 5706 5705 5703 5703 5702 5702 5701 5701 5700 5700 5700 5700 5700 5701 5701
5749 5747 5746 5744 5743 5741 5740 5738 5736 5734 5732 5731 5729 5728 5726 5725 5723 5721 5719 5718 5717 5715 5714 5713 5712 5711 5710 5709 5708 5707 5706 5705 5704 5704 5703 5703 5703 5702 5702 5702 5702 5702 5702
5748 5746 5745 5743 5742 5741 5739 5737 5736 5734 5732 5731 5730 5728 5727 5725 5723 5722 5721 5719 5718 5717 5716 5715 5714 5713 5712 5711 5710 5710 5709 5708 5707 5707 5706 5706 5706 5705 5705 5704 5704 5704 5704
5747 5745 5744 5743 5742 5741 5739 5737 5736 5734 5733 5732 5730 5729 5728 5726 5725 5724 5722 5721 5720 5719 5718 5717 5716 5716 5715 5714 5713 5713 5712 5711 5710 5710 5710 5709 5709 5708 5708 5707 5707 5707 5706
5747 5746 5745 5744 5743 5741 5740 5738 5737 5736 5735 5733 5732 5731 5730 5728 5727 5726 5725 5724 5723 5722 5721 5720 5720 5719 5718 5717 5717 5716 5715 5715 5714 5713 5713 5712 5712 5712 5711 5710 5710 5709 5709